Find Starlink 34985

NORAD ID: 65379 Int'l Des: 2025-191 Owner: SPXS Country: US Constellation: starlink operational
LEOCIRCULARRETROGRADESSO

現在のビュー

3D地球を読み込み中...

About Starlink 34985

Starlink 34985 (NORAD 65379) is a starlink constellation satellite (v2 mini) launched Aug 30, 2025 by SPXS of US. It operates in LEO, CIRCULAR, RETROGRADE, SSO orbit with a mass of 575.00 kg.

Starlink 34985について

説明を読み込み中...

次回通過

Passes for default location (London). Set your location on the main map for personalized predictions.

高度履歴

Loading altitude history...

軌道要素

1 65379U 25191A 26194.81098956 .00000440 00000-0 34419-4 0 9999
2 65379 97.2839 63.7631 0002606 85.2015 274.9510 15.05655254 49246
Epoch: Jul 13, 2026 • Age: 11 hours

現在のステータス

高度 551.2 km
遠地点 / 近地点 N/A
速度 7.59 km/s
衛星直下点 12.43°N, 30.19°E
打ち上げ日 Aug 30, 2025
運用期間 0.8 years
タイプ internet

技術仕様

分類 Payload
質量 575.00 kg
乾燥質量 530.00 kg
総質量 575.00 kg
長さ 0.30 m
直径 4.10 m
スパン 29.00 m
形状 Box + pan
製造者 SPXS
バスタイプ Starlink V2MO
フェーズステータス In Orbit
所有者/国 SPXS/US

Most Searched